Time,TemperatureF,DewpointF,PressureIn,WindDirection,WindDirectionDegrees,WindSpeedMPH,WindSpeedGustMPH,Humidity,HourlyPrecipIn,Conditions,Clouds,dailyrainin,SolarRadiationWatts/m^2,SoftwareType,DateUTC
2013-06-22 00:00:00,70.1,68.9,30.14,SSW,196,0.0,0.0,96,0.00,,,0.24,0,Wunderground v.1.15,2013-06-22 04:00:00,
2013-06-22 00:30:00,69.7,68.5,30.13,SSW,196,0.0,0.0,96,0.00,,,0.00,0,Wunderground v.1.15,2013-06-22 04:30:00,
2013-06-22 01:00:00,70.4,69.2,30.13,NW,326,0.0,0.0,96,0.00,,,0.00,0,Wunderground v.1.15,2013-06-22 05:00:00,
2013-06-22 01:30:00,70.8,69.6,30.12,NW,326,0.0,0.0,96,0.00,,,0.00,0,Wunderground v.1.15,2013-06-22 05:30:00,
2013-06-22 02:00:00,71.3,70.1,30.11,NW,326,0.0,0.0,96,0.00,,,0.00,0,Wunderground v.1.15,2013-06-22 06:00:00,
2013-06-22 02:30:00,71.6,70.4,30.11,SE,139,1.0,1.0,96,0.04,,,0.04,0,Wunderground v.1.15,2013-06-22 06:30:00,
2013-06-22 03:00:00,71.6,70.4,30.10,SE,139,0.0,1.0,96,0.00,,,0.05,0,Wunderground v.1.15,2013-06-22 07:00:00,
2013-06-22 03:30:00,71.3,70.1,30.09,South,169,0.0,0.0,96,0.00,,,0.05,0,Wunderground v.1.15,2013-06-22 07:30:00,
2013-06-22 04:00:00,71.2,70.0,30.08,South,169,0.0,0.0,96,0.00,,,0.05,0,Wunderground v.1.15,2013-06-22 08:00:00,
2013-06-22 04:30:00,71.1,69.9,30.09,West,273,0.0,0.0,96,0.00,,,0.05,0,Wunderground v.1.15,2013-06-22 08:30:00,
2013-06-22 05:00:00,71.2,70.3,30.09,WNW,291,0.0,0.0,97,0.08,,,0.09,0,Wunderground v.1.15,2013-06-22 09:00:00,
2013-06-22 05:30:00,71.3,70.1,30.10,South,176,3.0,6.0,96,0.08,,,0.12,0,Wunderground v.1.15,2013-06-22 09:30:00,
2013-06-22 06:00:00,71.2,70.0,30.10,SSE,149,3.0,3.0,96,0.00,,,0.14,0,Wunderground v.1.15,2013-06-22 10:00:00,
2013-06-22 06:30:00,71.1,69.9,30.10,SE,139,4.0,4.0,96,0.00,,,0.15,14,Wunderground v.1.15,2013-06-22 10:30:00,
2013-06-22 07:00:00,71.0,69.8,30.11,ESE,122,3.0,3.0,96,0.00,,,0.15,37,Wunderground v.1.15,2013-06-22 11:00:00,
2013-06-22 07:30:00,71.3,70.1,30.12,SSE,149,3.0,3.0,96,0.00,,,0.15,21,Wunderground v.1.15,2013-06-22 11:30:00,
2013-06-22 08:00:00,71.0,69.5,30.13,SE,125,1.0,3.0,95,0.00,,,0.15,84,Wunderground v.1.15,2013-06-22 12:00:00,
2013-06-22 08:30:00,70.9,69.7,30.13,SE,129,0.0,0.0,96,0.06,,,0.17,62,Wunderground v.1.15,2013-06-22 12:30:00,
2013-06-22 09:00:00,72.1,70.9,30.12,NE,49,0.0,0.0,96,0.04,,,0.19,160,Wunderground v.1.15,2013-06-22 13:00:00,
2013-06-22 09:30:00,73.3,72.1,30.12,NE,47,0.0,0.0,96,0.00,,,0.19,163,Wunderground v.1.15,2013-06-22 13:30:00,
2013-06-22 10:00:00,72.9,71.7,30.12,SW,225,0.0,0.0,96,0.07,,,0.22,40,Wunderground v.1.15,2013-06-22 14:00:00,
2013-06-22 10:30:00,72.2,70.7,30.12,SE,133,4.0,4.0,95,1.12,,,0.34,53,Wunderground v.1.15,2013-06-22 14:30:00,
2013-06-22 11:00:00,71.7,70.5,30.12,SSE,153,1.0,4.0,96,0.37,,,0.63,84,Wunderground v.1.15,2013-06-22 15:00:00,
2013-06-22 11:30:00,73.8,72.9,30.12,SSE,163,2.0,2.0,97,0.00,,,0.65,292,Wunderground v.1.15,2013-06-22 15:30:00,
2013-06-22 12:00:00,74.4,73.2,30.12,SSW,193,3.0,4.0,96,0.06,,,0.67,47,Wunderground v.1.15,2013-06-22 16:00:00,
2013-06-22 12:30:00,73.7,72.5,30.12,SSE,167,1.0,1.0,96,0.26,,,0.83,125,Wunderground v.1.15,2013-06-22 16:30:00,
2013-06-22 13:00:00,74.5,73.3,30.12,East,98,1.0,3.0,96,0.04,,,0.88,220,Wunderground v.1.15,2013-06-22 17:00:00,
2013-06-22 13:30:00,75.7,74.2,30.12,South,171,3.0,3.0,95,0.00,,,0.88,513,Wunderground v.1.15,2013-06-22 17:30:00,
2013-06-22 14:00:00,78.5,76.6,30.11,South,177,2.0,2.0,94,0.00,,,0.88,468,Wunderground v.1.15,2013-06-22 18:00:00,
2013-06-22 14:30:00,78.7,75.2,30.11,SW,221,3.0,3.0,89,0.00,,,0.88,176,Wunderground v.1.15,2013-06-22 18:30:00,
2013-06-22 15:00:00,79.6,76.1,30.11,SW,229,2.0,2.0,89,0.00,,,0.88,359,Wunderground v.1.15,2013-06-22 19:00:00,
2013-06-22 15:30:00,79.6,74.7,30.10,WSW,244,3.0,3.0,85,0.00,,,0.88,401,Wunderground v.1.15,2013-06-22 19:30:00,
2013-06-22 16:00:00,80.3,75.7,30.10,WSW,246,2.0,2.0,86,0.00,,,0.88,401,Wunderground v.1.15,2013-06-22 20:00:00,
2013-06-22 16:30:00,80.7,75.1,30.10,SSW,213,2.0,2.0,83,0.00,,,0.88,257,Wunderground v.1.15,2013-06-22 20:30:00,
2013-06-22 17:00:00,80.1,75.2,30.10,WSW,248,1.0,1.0,85,0.00,,,0.88,207,Wunderground v.1.15,2013-06-22 21:00:00,
2013-06-22 17:30:00,78.4,73.9,30.10,South,175,1.0,1.0,86,0.00,,,0.88,69,Wunderground v.1.15,2013-06-22 21:30:00,
2013-06-22 18:00:00,78.1,73.9,30.10,SE,138,1.0,3.0,87,0.00,,,0.88,44,Wunderground v.1.15,2013-06-22 22:00:00,
2013-06-22 18:30:00,78.1,73.9,30.10,South,173,2.0,2.0,87,0.00,,,0.88,125,Wunderground v.1.15,2013-06-22 22:30:00,
2013-06-22 19:00:00,78.0,74.2,30.10,South,178,2.0,2.0,88,0.00,,,0.88,84,Wunderground v.1.15,2013-06-22 23:00:00,
2013-06-22 19:30:00,77.4,74.2,30.10,South,186,0.0,0.0,90,0.00,,,0.88,26,Wunderground v.1.15,2013-06-22 23:30:00,
2013-06-22 20:00:00,76.3,73.1,30.10,North,360,0.0,0.0,90,0.00,,,0.88,9,Wunderground v.1.15,2013-06-23 00:00:00,
2013-06-22 20:30:00,74.6,71.8,30.11,NE,46,0.0,0.0,91,0.00,,,0.88,0,Wunderground v.1.15,2013-06-23 00:30:00,
2013-06-22 21:00:00,74.1,71.9,30.11,NE,46,0.0,0.0,93,0.00,,,0.88,0,Wunderground v.1.15,2013-06-23 01:00:00,
2013-06-22 21:30:00,73.9,72.1,30.11,SSE,158,0.0,0.0,94,0.00,,,0.88,0,Wunderground v.1.15,2013-06-23 01:30:00,
2013-06-22 22:00:00,73.6,71.8,30.13,SSE,160,0.0,0.0,94,0.00,,,0.88,0,Wunderground v.1.15,2013-06-23 02:00:00,
2013-06-22 22:30:00,73.5,72.0,30.13,SSE,156,0.0,0.0,95,0.00,,,0.88,0,Wunderground v.1.15,2013-06-23 02:30:00,
2013-06-22 23:00:00,72.9,71.4,30.15,SSE,156,0.0,0.0,95,0.00,,,0.88,0,Wunderground v.1.15,2013-06-23 03:00:00,
2013-06-22 23:30:00,72.6,71.1,30.15,SSE,156,0.0,0.0,95,0.00,,,0.88,0,Wunderground v.1.15,2013-06-23 03:30:00,